Погода в Ческе-Веленице

Чехия     48°46′02″N   14°57′59″E
темп.,
°C
ветер,
м/с
пор.,
м/с
влажн.,
%
обл.,
%
осадки,
мм/ч
давл.,
гПа
погр.,
м
6 мая, чт
чт623:00+4з613705 0.0 1013874
02:00+3зюз5137642 0.0 1014707
05:00+3з5138113 0.0 1014603
08:00+6зюз51063100 0.0 1013972
11:00+9зюз71053100 0.0 10121689
14:00+10зюз61157100 0.1 10111707
17:00+11зюз3552100 0.0 10091469
20:00+8юв2269100 0.0 100725
7 мая, пт
пт723:00+5ю2487100 0.2 100881
02:00+7юз5138543 0.3 1006970
05:00+8зюз71681100 0.1 10061626
08:00+7з61584100 0.3 10081484
11:00+8з8136750 0.1 10101499
14:00+9зсз7125099 0.3 10112179
17:00+8з7125734 0.1 10131711
20:00+5зсз4117099 0.5 1016600
8 мая, сб
сб823:00+3зсз5118611 0.1 1020662
02:000зюз24944 0.1 102291
05:00−1зюз22895 0.0 102332
08:00+5зюз13560 0.0 1023349
11:00+11з233414 0.0 10211772
14:00+14зсз1329100 0.0 10192397
17:00+14юв12315 0.0 10172335
20:00+8юв486069 0.0 1019217
9 мая, вс
вс923:00+4ююв24774 0.0 102075
02:00+4ююв2370100 0.0 101936
05:00+4юв237263 0.0 101844
08:00+10вюв346455 0.0 1016211
11:00+16вюв56505 0.0 1014643
14:00+19вюв68445 0.0 1012869
17:00+19вюв68495 0.0 1011829
20:00+13вюв6126899 0.0 1010327
10 мая, пн
пн1023:00+9вюв498262 0.0 1011259
02:00+7вюв36935 0.0 1011130
05:00+6вюв24948 0.0 101173
08:00+12вюв33745 0.0 1011219
11:00+19в23520 0.0 1010809
14:00+21в55520 0.0 1010875
17:00+20вюв68544 0.0 1008780
20:00+16вюв512780 0.0 1007383